Theta_e
313 315 317 317 317 318 318 320 321 322 323 324 324 325 325 324 324 324 323 321 321 320 318 318 317 316 315 314 315 315 316 315 315 315 314 311 311 308 307 309 307 302 301 300 300 302 301 299 296 296 295 293 293 293 293 293 293 294 294 293 293 292 293 291 289 289 291 292 292 292 291 291 289 291 289 289 290 290 290 289 289 289 289 289 289
308 310 312 314 315 315 316 317 319 321 321 322 322 322 322 322 321 319 319 318 317 317 316 315 314 314 313 313 312 313 313 313 312 313 312 309 307 306 305 305 302 298 298 298 299 300 300 298 295 293 293 292 291 291 291 291 291 291 290 291 290 289 291 290 289 288 287 289 289 290 290 290 287 291 288 288 288 288 287 288 289 289 288 288 288
310 310 310 310 311 313 314 315 316 318 318 318 318 319 318 317 318 317 317 314 313 314 313 312 311 311 311 311 311 311 312 310 308 310 309 306 303 302 303 303 300 298 298 297 296 296 296 295 293 292 292 290 290 290 290 290 290 289 289 290 289 289 289 289 288 287 287 288 288 287 288 288 288 287 289 289 288 288 286 287 287 289 289 289 288
309 309 309 310 310 310 311 312 313 313 313 315 315 315 315 315 314 315 314 312 311 310 311 311 310 309 309 309 309 308 308 306 305 306 306 303 302 300 300 300 299 298 299 297 295 295 295 292 291 290 290 289 289 289 290 290 289 289 288 289 289 288 288 288 288 287 287 285 287 286 287 286 286 288 289 289 286 285 286 287 288 287 287 288 287
307 308 308 308 308 308 308 309 310 310 309 309 310 310 309 309 308 310 309 308 309 308 307 308 308 308 308 308 307 305 303 303 304 303 302 301 300 299 298 299 298 299 298 295 293 294 294 292 290 289 289 289 288 288 288 288 289 288 288 288 288 288 287 287 287 287 285 285 286 287 287 286 286 286 287 285 285 285 285 285 285 285 286 287 287
306 306 306 305 305 305 305 306 306 307 308 308 308 307 305 305 305 305 306 308 306 306 306 305 306 306 306 307 306 304 301 301 302 302 301 300 299 297 297 297 297 296 294 294 294 292 292 290 289 289 289 288 288 288 288 288 288 288 288 287 287 287 286 286 286 285 285 285 285 284 285 285 284 285 285 285 283 283 283 284 284 284 284 283 284
305 304 304 304 304 304 305 305 306 306 306 306 306 304 303 301 303 304 303 304 303 303 302 303 302 304 304 303 303 301 299 299 300 298 297 297 297 297 295 295 294 294 293 292 292 292 291 290 289 289 289 289 288 288 288 288 288 288 288 287 287 286 285 285 285 284 284 284 284 284 284 285 284 283 285 285 284 283 281 281 281 283 283 282 282
305 304 304 304 304 304 305 306 305 305 304 303 302 300 300 299 300 300 297 300 300 301 301 302 299 300 300 299 298 297 297 297 296 296 296 296 296 295 294 294 294 293 291 291 291 290 290 290 289 289 289 290 289 289 289 288 288 287 287 287 286 285 285 285 284 284 283 283 283 283 284 283 283 284 285 283 281 281 281 279 278 279 280 281 281
304 304 304 303 303 304 305 303 302 300 298 299 298 298 297 296 295 294 294 295 297 296 298 298 295 296 295 296 296 296 297 297 296 296 296 296 295 293 293 293 293 292 291 290 289 289 289 289 289 289 289 287 288 289 289 289 288 287 287 286 286 285 285 285 283 284 282 283 283 285 283 282 283 282 281 280 280 279 280 280 279 280 280 280 281
304 304 303 303 304 304 302 300 299 298 298 297 295 293 293 293 293 293 294 294 293 293 293 294 295 295 295 294 295 296 296 297 293 294 295 295 293 292 292 291 291 290 289 288 288 288 288 288 287 285 285 285 286 287 287 287 287 288 287 286 285 285 284 283 283 283 282 282 281 281 280 280 281 281 280 280 281 280 279 279 277 279 279 278 278
304 304 304 304 303 302 299 297 294 295 297 294 293 292 292 292 292 292 292 292 292 292 293 293 293 293 294 294 294 295 297 295 291 294 294 293 292 292 291 290 290 289 288 287 286 287 287 286 285 284 284 284 285 286 286 286 286 287 287 287 287 286 283 282 282 283 282 281 282 281 280 280 280 281 280 280 280 278 276 277 277 277 276 275 274
303 303 304 303 302 300 298 296 294 294 294 293 292 292 292 291 291 291 291 291 291 291 293 293 294 293 294 294 294 294 295 292 293 294 293 293 292 291 290 290 289 288 287 287 286 286 286 285 285 285 285 285 285 284 285 285 286 286 286 285 285 285 286 284 284 283 282 281 281 281 280 280 280 280 280 279 278 278 278 278 277 276 275 274 274
302 303 302 300 298 298 296 294 294 294 293 294 293 292 291 290 291 290 290 290 290 291 292 292 292 293 294 294 294 294 293 291 293 293 293 293 292 291 290 289 288 287 287 287 286 286 285 285 284 285 285 284 285 285 284 284 285 285 285 284 284 284 284 285 285 284 282 282 281 280 280 280 279 280 280 278 279 277 278 277 277 276 276 275 275
301 299 298 297 297 296 295 294 294 294 292 292 292 291 291 291 291 291 291 290 290 291 291 291 291 292 293 293 293 293 293 290 293 292 292 292 292 291 290 289 288 287 287 287 286 286 285 284 284 284 284 284 285 285 284 284 284 284 283 283 283 282 283 284 284 283 283 282 280 278 281 282 279 280 280 280 278 277 277 276 277 276 275 274 275
300 299 296 297 297 295 295 294 295 293 292 291 290 291 291 291 289 289 290 290 290 291 290 290 291 290 291 292 291 291 292 290 292 292 292 292 292 291 289 289 288 287 287 287 286 286 285 285 284 283 283 283 285 285 284 284 283 283 283 283 283 282 282 282 282 282 282 282 281 281 282 282 281 280 280 280 279 279 278 277 276 276 276 277 276
298 297 297 298 297 297 295 294 294 294 292 291 289 289 289 289 289 290 290 290 290 290 290 289 289 289 289 291 291 290 290 290 291 291 291 292 291 289 289 288 287 286 286 286 286 286 285 285 284 283 283 283 285 286 285 285 283 283 282 283 282 281 282 284 283 283 282 282 282 282 282 281 281 280 280 280 279 279 277 277 275 275 274 273 272
295 296 295 296 296 296 295 294 294 293 291 289 288 289 289 289 289 289 289 289 289 289 289 289 289 289 288 289 290 290 289 289 290 290 291 291 290 288 288 287 286 286 285 285 285 285 285 284 284 284 283 283 285 286 286 285 283 282 282 280 280 281 280 281 281 282 281 280 280 281 281 281 281 281 281 281 279 277 276 274 272 273 271 271 272
295 295 295 296 296 296 296 295 294 291 289 288 289 289 289 289 288 288 289 288 288 288 288 288 288 288 288 288 290 289 289 288 289 290 290 291 289 287 287 286 285 285 284 285 285 284 284 285 284 284 283 283 286 286 287 285 283 282 281 280 279 278 278 279 280 281 282 279 278 279 279 279 280 280 279 279 278 277 272 271 271 272 271 271 270
294 294 294 296 296 296 295 294 293 290 289 289 289 288 288 288 288 288 289 288 288 288 287 287 287 287 287 287 287 289 288 287 289 289 290 290 288 287 287 286 285 284 284 283 284 283 283 283 284 284 283 284 286 286 287 285 283 282 281 279 278 277 278 279 279 278 278 276 275 276 275 277 276 275 276 277 277 276 275 272 271 272 271 271 270
295 295 296 296 296 296 292 290 290 289 289 288 288 289 288 288 287 287 288 288 288 288 287 287 286 287 287 287 287 288 288 287 287 289 289 289 289 287 287 286 284 283 283 283 282 282 282 282 283 285 285 286 286 287 287 286 283 282 281 279 278 277 279 279 279 278 277 275 274 273 272 273 272 272 272 272 272 275 273 272 273 272 272 271 270
295 295 295 295 295 295 294 290 289 289 289 289 288 288 289 288 287 287 287 288 288 287 286 286 286 286 286 286 287 287 287 287 286 289 289 289 289 287 286 285 285 284 283 283 283 282 281 281 281 284 285 286 287 287 287 287 284 282 281 279 279 279 280 278 278 278 274 273 272 271 271 272 272 271 272 272 272 273 273 274 274 273 272 271 270
295 295 295 294 292 291 290 290 289 288 288 288 288 288 288 287 287 287 288 287 286 286 285 286 286 286 286 286 286 287 286 286 287 287 288 289 288 288 286 286 286 284 284 283 282 282 282 281 281 283 285 286 286 287 287 287 286 281 280 281 281 281 279 277 276 275 274 273 273 272 273 272 272 272 271 272 273 273 273 271 272 272 273 273 272
293 293 293 291 289 288 288 288 288 288 287 287 287 287 287 286 286 286 286 286 285 285 285 285 285 285 285 285 286 286 286 286 286 286 287 288 288 288 288 286 288 285 284 282 282 282 282 281 282 283 285 285 286 286 287 287 285 282 282 282 282 282 278 275 274 274 273 273 273 272 272 273 272 272 272 272 273 272 271 272 272 271 271 272 273
291 289 288 288 287 287 287 287 287 287 287 287 287 287 286 286 286 286 286 286 286 285 285 285 285 285 285 285 285 286 286 286 285 285 286 287 288 288 288 288 288 285 284 283 282 282 282 282 282 283 284 285 286 286 286 285 283 283 282 282 282 280 275 274 273 272 272 272 272 272 272 273 272 272 272 272 272 271 271 270 269 269 270 270 271
287 287 286 286 286 287 287 287 287 287 287 287 287 286 285 285 285 285 286 285 285 285 284 284 284 284 284 284 285 285 286 286 286 285 285 285 287 287 287 287 287 286 283 283 283 283 283 283 283 284 284 285 285 286 286 285 284 282 281 281 280 276 273 272 272 272 271 271 272 272 272 273 273 272 272 271 270 270 269 269 269 270 270 271 271
286 285 286 286 285 285 285 285 286 286 286 287 287 287 286 285 285 284 285 285 285 284 284 284 283 284 284 284 285 285 285 285 285 285 285 285 285 286 287 286 285 285 284 283 284 284 283 283 283 283 284 284 284 283 282 282 283 281 281 281 276 273 272 272 272 271 271 272 272 272 273 272 271 271 271 269 268 268 269 269 269 270 270 271 271
285 285 285 285 284 284 285 285 285 285 285 286 287 286 286 286 286 285 284 285 285 285 285 284 283 283 283 284 285 285 284 284 284 285 284 284 284 284 284 284 284 284 283 282 283 282 283 282 282 283 283 284 283 283 281 281 281 279 279 276 274 272 272 272 271 271 272 272 272 272 272 271 271 270 269 269 268 269 270 270 269 269 271 271 270
285 285 284 285 285 284 285 281 283 285 284 285 286 286 286 286 286 285 285 285 285 285 285 284 284 283 283 284 284 284 283 283 284 284 284 284 284 284 284 284 283 283 282 282 281 281 281 282 282 282 282 282 281 279 278 277 277 276 274 272 272 271 272 273 273 272 272 272 271 271 270 269 268 269 269 269 269 269 270 269 269 269 270 270 269
284 283 284 284 284 284 285 284 285 285 284 284 285 285 285 285 285 285 285 286 286 285 285 285 284 284 284 284 284 283 283 283 284 286 285 285 284 284 283 283 283 283 282 282 280 280 280 280 279 280 279 279 277 275 275 275 273 273 272 270 270 270 270 269 268 269 269 269 269 269 268 269 268 269 269 268 269 269 270 269 269 269 269 270 269
283 283 283 284 283 283 284 283 283 283 283 283 283 283 281 282 283 284 285 285 284 284 284 284 285 284 284 285 285 284 284 284 286 286 286 286 286 285 285 284 284 283 283 283 281 279 279 278 278 278 277 276 275 274 273 272 272 271 270 270 269 269 268 268 268 268 269 268 268 268 268 268 268 268 268 268 268 269 270 270 268 269 269 268 268
284 283 283 283 283 283 283 283 282 282 282 282 282 282 282 282 282 281 281 281 282 283 284 284 284 283 283 283 284 286 285 284 285 285 285 285 285 285 285 284 284 284 283 281 278 278 278 277 277 277 276 276 274 274 273 272 271 270 269 269 269 268 268 268 268 268 268 268 268 268 268 268 267 268 267 268 268 268 268 269 269 268 268 268 268
285 284 284 282 281 283 283 282 281 281 282 281 281 282 281 282 283 282 282 282 281 282 282 282 283 283 283 283 282 282 284 285 284 284 284 284 285 285 285 284 284 284 283 282 278 277 277 277 277 276 276 275 275 274 273 272 271 271 270 268 268 268 268 267 268 268 267 267 267 267 267 267 267 267 268 267 267 267 267 267 268 268 268 269 268
284 283 282 281 281 281 282 281 281 281 280 280 279 280 281 281 281 283 282 281 281 282 281 281 282 282 283 283 283 283 283 284 284 284 284 284 284 284 285 285 285 284 284 281 278 277 277 277 277 277 276 275 276 275 274 273 272 272 271 269 269 268 268 268 269 267 267 267 267 267 267 267 267 267 267 267 266 265 267 267 267 268 268 267 267
282 283 282 282 282 281 281 281 281 281 281 281 280 280 280 279 281 280 280 281 280 280 280 281 281 282 282 283 283 283 283 283 284 284 283 283 284 284 284 284 285 285 283 279 279 277 277 276 276 276 276 276 276 275 274 274 272 272 271 270 270 269 268 268 267 267 267 267 267 267 267 266 266 265 265 266 266 266 266 267 267 267 267 267 267
280 275 275 278 282 282 281 281 281 280 280 279 279 279 279 280 279 279 279 279 279 280 281 281 281 281 281 281 282 282 283 283 283 283 283 283 283 284 284 282 281 282 282 281 280 279 277 277 276 276 276 276 276 275 274 274 273 271 271 270 270 269 267 267 266 266 266 266 266 266 266 265 266 266 265 265 265 265 265 266 266 267 266 266 267
279 279 278 278 281 281 281 280 280 280 279 279 278 279 279 278 278 279 279 278 278 278 279 280 280 282 282 282 282 282 282 283 283 283 283 283 283 283 280 279 279 280 280 281 281 280 279 278 277 277 277 277 277 275 275 273 273 272 272 271 269 268 267 266 266 265 266 266 266 266 266 265 265 265 265 265 265 265 266 266 266 267 267 266 266
279 280 279 279 279 279 279 278 278 278 278 277 277 277 278 277 278 278 278 278 278 278 278 278 279 278 280 280 281 282 282 282 282 282 283 283 283 282 280 279 279 279 279 280 280 280 279 279 279 278 277 277 276 276 274 273 273 272 272 271 270 268 267 266 265 265 265 265 266 265 265 264 264 264 264 264 264 264 264 265 266 266 267 266 267
276 277 276 276 276 276 277 277 276 276 276 276 276 277 276 277 277 277 276 276 276 276 276 276 278 277 276 277 282 280 280 281 282 281 282 282 281 281 280 280 279 279 279 280 280 279 279 279 279 278 278 278 277 276 274 273 273 272 271 270 269 268 268 267 266 266 265 265 265 264 264 264 264 264 264 263 264 264 264 265 265 265 266 266 266
274 273 274 275 277 277 277 276 276 276 276 276 276 275 275 275 275 275 275 275 275 275 275 275 276 276 276 277 277 279 279 277 277 278 278 279 280 280 280 280 280 279 279 279 279 279 279 279 279 279 278 278 277 275 273 272 272 271 271 269 268 267 267 266 265 265 265 265 264 264 264 264 264 263 264 263 263 264 264 265 265 265 264 265 265
276 275 274 275 275 276 275 275 275 275 275 275 275 275 274 274 274 274 274 274 274 274 274 274 274 275 276 276 276 277 276 276 277 277 278 278 279 279 280 280 280 280 279 280 280 280 279 279 279 278 278 278 277 274 273 271 271 271 270 269 267 267 267 266 266 265 264 265 264 264 263 263 263 263 263 263 263 264 264 264 264 265 265 264 265
275 274 272 274 274 275 274 274 274 274 274 274 274 274 273 273 273 274 273 273 273 273 273 273 274 274 275 276 277 277 275 275 275 276 277 278 278 279 279 280 280 280 280 280 279 279 279 279 279 278 277 277 276 275 273 272 271 270 269 268 267 267 267 266 266 265 265 265 264 264 264 263 263 263 262 263 264 264 263 264 264 264 264 264 264
274 274 274 273 272 274 274 273 273 271 272 272 272 273 273 273 273 273 272 272 272 272 272 272 273 274 275 276 276 276 275 274 275 275 276 276 277 277 278 279 280 280 280 280 280 279 279 279 278 277 276 275 275 274 273 272 271 270 269 268 267 267 266 266 266 265 265 265 264 264 264 264 263 263 263 264 263 263 263 263 263 263 263 263 264
273 274 273 273 274 273 273 273 273 272 272 272 272 272 271 271 271 272 272 272 272 272 272 272 272 273 273 275 275 275 274 274 273 274 274 275 275 276 276 277 278 279 279 280 280 280 279 279 279 278 277 276 275 274 273 272 271 270 269 268 268 267 267 267 266 265 265 264 264 264 264 264 263 263 263 263 262 263 262 262 262 263 263 263 263
272 273 272 272 272 272 272 272 272 272 271 270 270 271 271 271 271 271 271 271 271 271 271 271 272 272 271 272 273 273 272 273 273 273 273 274 274 275 275 276 277 277 277 278 278 278 278 278 278 278 278 276 275 274 273 272 271 270 269 268 267 267 267 266 266 266 265 264 264 263 263 263 263 263 262 262 262 261 261 262 262 262 262 262 263
272 272 272 271 271 271 270 270 270 270 269 270 270 270 270 270 270 271 271 270 270 270 271 270 271 270 270 270 270 271 271 271 272 272 272 273 273 273 274 274 275 275 275 276 276 276 276 276 276 276 276 276 276 274 273 271 270 269 270 269 268 267 267 267 267 266 266 265 264 263 263 263 262 262 262 262 262 261 261 261 261 261 261 262 262
270 270 270 270 269 269 269 269 268 269 268 269 269 269 270 270 270 269 269 269 269 269 269 269 269 269 269 269 270 270 270 270 270 271 271 271 272 272 273 273 273 273 274 274 275 275 274 274 274 274 274 275 275 275 274 271 269 269 269 269 269 269 269 269 268 267 265 264 264 263 263 263 262 262 262 262 261 261 261 261 261 261 261 261 261
268 269 269 269 269 268 268 268 268 268 267 268 268 267 268 268 268 268 268 268 268 268 268 268 268 268 268 268 268 268 269 269 269 270 270 270 270 270 271 271 271 271 271 272 273 273 272 272 273 273 273 273 273 273 273 272 271 269 267 268 268 268 268 268 267 266 265 265 265 264 263 262 262 262 262 262 261 261 261 260 260 260 260 260 260
268 268 268 267 267 267 267 267 267 266 266 267 267 267 267 267 267 267 267 267 267 267 267 267 267 267 267 268 268 268 268 268 269 269 269 269 269 270 270 269 270 270 270 270 270 271 271 272 271 271 271 270 270 270 270 270 270 270 268 267 267 267 267 266 266 265 265 265 265 264 264 263 263 262 262 261 261 261 260 260 260 259 259 260 260
266 266 266 266 266 266 266 266 266 266 266 266 266 266 266 266 266 266 266 266 266 266 266 266 266 266 267 267 268 268 268 268 267 268 268 268 268 268 269 269 268 269 269 269 269 269 270 270 270 270 270 270 270 269 269 268 268 268 267 266 265 265 265 265 265 265 264 264 264 264 264 263 263 262 262 261 261 261 260 260 260 259 259 259 259
265 265 265 265 265 265 265 264 264 264 264 264 264 264 264 264 264 264 265 265 265 265 265 265 265 266 266 266 266 267 267 267 267 267 267 267 268 268 268 267 267 267 268 268 268 268 268 268 269 269 269 269 269 269 269 268 267 266 265 264 264 264 264 265 265 264 264 264 264 264 263 263 263 262 261 261 260 260 260 259 259 259 259 259 258
263 263 263 263 263 263 263 263 263 263 263 263 263 263 263 263 264 264 263 263 263 264 264 265 265 265 265 266 266 266 266 266 267 267 267 267 267 267 267 267 266 267 267 267 267 267 267 267 267 267 267 266 266 266 266 267 266 266 264 264 264 264 263 264 264 264 263 263 263 263 263 262 262 261 261 260 260 260 259 259 259 259 258 258 258
Wind_Speed
6 6 6 7 7 9 11 11 12 10 10 9 10 10 8 8 7 7 6 7 6 6 6 8 8 8 8 8 8 8 9 8 8 8 9 6 6 7 8 8 9 7 8 6 4 6 7 8 7 6 7 6 6 5 4 4 2 2 2 2 2 0 1 2 3 2 2 2 2 2 2 1 2 2 2 2 2 3 4 4 6 5 5 5 5
7 7 7 7 9 9 11 10 9 8 9 10 11 10 9 8 7 6 7 6 7 8 8 8 7 8 8 8 8 8 8 8 9 9 9 8 7 6 7 8 8 7 7 7 6 5 7 8 7 7 6 5 5 5 5 5 4 3 2 2 2 2 1 2 2 2 3 3 3 3 2 3 2 2 2 2 3 3 4 5 5 5 5 4 4
5 5 6 7 8 8 7 9 9 10 9 8 9 8 7 7 7 8 7 6 6 7 8 8 8 8 8 8 9 9 9 8 7 9 9 9 9 7 8 9 9 9 8 7 7 6 7 7 7 7 5 6 5 4 4 4 4 4 4 2 3 2 1 1 2 3 3 1 3 1 1 1 2 2 2 2 3 3 4 5 4 4 4 4 4
4 4 4 5 5 5 6 5 6 5 6 6 6 5 5 5 5 7 6 6 7 6 7 7 7 8 8 8 8 8 8 7 8 9 10 10 10 9 8 8 8 9 9 8 8 8 8 8 8 8 7 7 6 5 4 3 4 4 3 3 3 3 2 1 2 0 0 0 0 2 0 0 2 2 2 2 2 3 4 4 4 5 5 4 4
5 5 5 6 6 6 6 6 6 5 5 3 4 4 4 4 4 6 5 6 6 6 6 6 7 8 8 9 8 8 7 8 8 8 8 8 9 9 9 8 8 8 7 8 8 8 8 9 8 9 8 7 6 5 5 5 4 4 4 3 4 3 2 2 1 0 0 1 1 0 1 2 2 3 2 1 3 3 3 3 3 5 6 4 4
5 5 6 6 7 7 8 7 7 6 5 4 4 3 3 3 3 3 5 6 6 6 7 6 7 8 7 8 8 9 9 8 9 10 10 10 10 8 7 7 7 7 7 7 8 7 8 8 9 9 8 8 7 6 6 6 5 5 5 4 4 3 3 2 2 2 2 2 2 2 2 2 2 2 1 0 3 4 2 2 4 4 4 7 4
7 7 7 7 7 8 7 7 6 5 4 4 3 3 3 3 3 4 3 4 5 6 5 6 5 6 7 6 8 8 9 8 7 7 8 8 9 8 8 7 7 6 6 7 7 7 8 8 8 8 8 6 7 7 7 6 5 5 4 5 4 4 4 4 4 3 3 2 2 3 2 2 2 2 0 0 3 3 2 5 5 3 3 6 10
8 7 7 7 7 7 6 4 4 3 2 2 2 2 2 2 3 2 2 3 4 5 6 6 5 4 5 6 5 5 6 7 6 7 8 8 9 8 8 8 8 7 7 8 7 7 7 7 7 6 5 5 6 6 7 6 5 5 4 4 5 4 4 4 4 4 3 3 2 2 1 1 2 1 0 1 2 1 2 2 6 7 6 5 5
6 6 6 5 5 4 3 2 1 1 1 1 1 1 1 1 1 2 3 3 3 4 4 4 5 4 4 5 7 7 8 7 7 9 9 8 8 8 8 9 9 9 9 8 7 7 6 6 5 4 5 7 8 7 6 6 6 6 5 5 5 5 4 4 3 3 2 2 2 2 2 2 1 0 1 1 1 2 3 3 4 5 6 7 7
6 6 6 6 4 4 4 3 4 4 4 5 3 2 2 2 2 2 1 1 1 2 3 3 4 5 5 5 5 6 7 7 7 10 9 10 10 8 7 8 9 10 10 9 8 7 6 5 6 10 10 9 9 9 8 6 3 3 6 6 6 5 4 3 3 3 2 2 2 1 1 1 0 0 1 2 1 2 3 4 4 6 6 7 4
8 7 7 5 4 4 4 4 3 4 5 3 3 4 3 3 3 3 3 3 4 4 5 5 5 5 6 7 7 7 6 6 11 11 12 13 10 9 10 9 9 10 10 10 10 9 7 6 6 8 8 7 7 8 7 7 6 7 7 5 3 4 4 4 3 2 2 2 1 1 1 2 2 0 1 1 2 2 2 3 3 5 5 8 10
9 8 6 5 5 5 4 4 4 4 4 5 5 4 4 4 4 4 4 3 3 3 5 6 6 6 6 6 7 7 6 8 15 14 15 15 12 10 9 10 10 10 9 9 9 8 8 8 6 5 6 7 7 7 7 7 8 7 7 7 5 3 3 3 3 4 3 3 2 2 1 2 1 1 1 1 2 3 3 4 3 4 5 5 5
8 7 5 5 5 5 5 5 4 4 4 4 4 5 4 5 4 5 5 4 4 4 4 4 5 5 7 8 7 7 5 10 14 15 16 16 15 12 9 9 10 10 10 9 9 9 9 8 7 6 5 10 8 6 6 7 7 8 8 7 5 4 4 4 3 1 1 2 2 1 2 1 1 1 1 1 2 3 3 3 3 4 5 6 6
8 5 4 5 4 5 5 5 5 4 2 3 4 4 5 6 5 4 4 4 4 4 3 4 4 5 6 7 6 7 6 9 14 15 15 16 16 12 8 10 9 10 10 10 9 9 10 10 9 8 7 8 7 8 7 7 7 7 7 5 4 5 5 6 7 3 1 2 2 3 2 1 2 0 1 1 2 2 3 5 4 5 6 6 7
8 7 6 5 4 4 4 4 5 4 4 4 3 4 4 4 3 3 4 4 5 7 7 7 6 5 5 5 5 6 4 11 14 15 16 17 16 12 8 8 8 8 8 8 9 9 9 8 8 9 9 9 7 9 9 9 7 6 6 5 6 5 5 6 6 5 4 2 2 2 2 0 0 1 1 1 2 2 3 4 5 5 6 7 8
6 5 6 6 5 4 4 4 4 3 4 4 4 4 4 3 4 3 3 3 3 2 2 2 4 5 5 6 6 6 4 11 13 14 16 17 17 9 7 9 8 8 8 7 7 7 7 8 9 9 9 9 11 15 11 9 8 8 7 6 4 4 5 4 3 3 2 1 2 1 0 0 1 2 3 3 3 3 2 3 3 4 4 4 6
5 5 5 4 4 4 4 5 4 4 3 3 3 3 3 3 3 2 3 3 3 4 4 4 4 5 5 5 6 6 5 11 13 14 15 17 14 6 8 7 7 8 8 7 7 7 7 8 8 9 10 9 13 17 16 12 8 9 7 6 4 4 4 4 5 6 5 5 2 3 5 6 6 7 6 7 4 2 1 2 3 0 2 4 5
5 5 5 4 4 4 4 5 5 3 3 4 3 3 2 2 3 3 4 4 5 4 3 3 3 4 5 6 8 6 6 11 15 15 17 19 15 9 8 8 7 7 7 6 5 6 6 10 9 9 10 10 17 18 18 12 9 8 8 7 7 6 5 4 4 5 8 3 2 4 5 5 6 6 6 6 5 4 2 3 1 1 3 3 3
5 5 5 4 4 4 5 5 5 4 4 4 4 4 4 3 2 3 2 2 2 1 2 3 3 3 4 5 6 6 4 8 15 16 17 18 14 6 7 8 8 7 7 6 5 5 6 7 11 10 9 11 20 19 19 13 8 8 8 8 7 8 7 6 6 6 5 3 2 4 3 4 3 3 3 5 4 4 4 3 1 2 3 3 3
6 5 5 5 4 4 3 4 4 4 5 4 3 4 3 3 3 3 2 2 2 1 2 3 4 3 3 4 4 6 4 6 11 16 17 18 17 9 7 9 11 10 7 8 7 5 7 7 8 11 13 16 20 20 18 16 8 8 7 8 8 10 6 6 6 5 5 4 2 2 2 1 2 2 2 2 2 4 3 2 2 2 3 3 3
6 6 5 5 4 4 3 3 4 3 3 3 3 3 3 4 4 4 3 2 2 1 3 2 2 2 1 4 3 4 4 5 10 17 17 19 20 14 9 11 10 10 9 9 8 9 8 8 7 12 16 17 20 20 18 18 12 7 8 7 7 4 7 5 8 9 4 3 2 2 2 3 3 3 3 3 3 3 3 3 2 2 3 3 3
6 6 6 5 3 2 2 2 2 2 2 3 3 3 2 2 3 3 2 2 4 3 2 2 3 3 2 3 3 4 4 7 6 14 17 19 19 20 11 11 10 10 9 9 8 8 8 7 7 13 17 17 18 18 18 18 17 6 6 8 7 10 7 4 4 4 4 3 3 3 3 3 3 3 3 3 2 3 2 2 2 3 3 4 4
5 6 5 4 3 3 2 2 2 2 3 3 4 3 3 3 3 3 3 3 3 3 3 3 2 3 2 2 2 3 3 4 8 9 14 15 14 19 14 8 11 9 10 11 11 9 5 5 5 13 17 17 17 17 17 19 15 8 11 12 12 13 8 4 4 4 4 3 3 3 4 4 3 3 3 3 3 2 2 2 2 2 3 3 4
4 4 4 5 5 4 3 3 3 3 3 3 3 4 3 3 2 3 3 3 3 4 3 4 3 5 5 3 3 3 3 3 6 10 11 14 11 11 8 6 7 7 7 7 5 5 6 5 7 17 17 17 17 17 18 17 11 15 13 15 15 13 5 5 4 4 4 4 4 4 4 3 3 3 3 2 2 1 0 1 1 3 3 4 5
5 5 5 5 4 4 3 3 3 3 3 3 4 4 4 4 4 2 4 3 3 4 3 4 5 4 4 4 3 3 3 3 3 7 11 12 12 11 11 8 8 5 6 3 4 2 4 8 12 17 17 17 17 17 16 17 18 15 15 15 15 6 5 5 5 5 5 5 5 4 4 4 3 2 2 2 1 0 1 2 3 5 5 6 6
6 6 5 4 5 5 5 3 3 3 3 2 3 3 4 5 4 3 3 3 3 4 3 4 4 5 5 4 4 3 4 3 4 5 8 9 9 11 10 10 9 8 8 3 5 6 9 11 14 16 16 14 12 11 9 9 15 16 16 15 8 6 6 6 6 6 6 6 6 6 4 3 2 2 2 2 1 2 2 2 2 3 4 4 4
7 6 5 5 4 4 4 3 3 2 2 2 2 2 2 2 2 3 3 4 4 4 5 5 5 5 5 4 4 4 4 5 5 5 5 5 5 7 9 9 10 9 7 2 4 4 8 9 9 13 11 16 12 9 9 9 11 11 9 8 7 6 7 6 6 5 6 6 5 4 3 3 2 2 2 3 3 2 2 2 2 3 3 3 3
7 6 6 5 4 4 3 6 4 3 3 2 2 2 2 3 3 3 4 4 4 4 4 4 5 4 4 4 4 4 4 5 6 6 6 7 8 7 7 7 8 5 4 4 4 5 5 6 9 7 8 8 7 5 6 6 7 6 6 6 6 5 6 7 6 4 3 3 3 3 3 4 3 3 3 3 3 2 2 2 2 2 3 2 3
7 7 5 4 5 4 4 4 3 3 3 2 2 2 2 3 3 2 1 2 2 3 3 3 3 3 3 4 4 5 5 6 8 8 6 8 7 7 8 7 4 3 6 7 6 5 5 5 6 7 8 9 8 8 7 7 6 7 8 7 7 6 7 5 5 5 4 3 4 5 4 4 4 4 4 3 4 3 3 3 3 3 3 4 5
6 5 4 4 4 4 3 3 2 2 2 2 1 1 3 3 2 1 1 1 4 7 5 3 3 2 3 4 4 6 6 3 2 7 7 7 8 6 3 3 4 4 7 12 7 4 6 6 8 8 8 8 9 11 11 10 10 9 9 8 8 8 8 6 6 5 5 5 4 5 5 5 5 5 5 5 4 3 4 5 2 3 4 5 5
4 4 3 3 4 3 3 3 2 2 2 1 0 0 0 1 5 4 3 4 6 7 8 7 8 8 6 5 4 6 9 2 5 6 6 7 7 7 7 7 8 11 13 9 6 7 7 10 10 10 11 11 11 11 10 10 11 10 10 9 8 10 8 7 7 6 5 6 6 5 5 6 5 6 5 5 5 4 3 3 3 4 4 5 5
5 4 4 4 5 4 3 3 3 3 2 2 1 0 0 2 0 6 8 6 5 5 7 7 8 7 8 8 7 5 5 3 4 6 7 8 8 8 8 8 9 12 14 12 7 9 10 10 10 11 11 12 13 11 11 10 10 11 10 9 11 10 10 8 10 7 6 6 6 6 6 5 5 5 5 5 5 4 4 4 4 5 5 5 5
5 5 4 5 4 5 3 3 3 3 2 2 1 1 0 1 2 2 2 5 6 6 7 7 9 10 10 10 11 9 10 6 4 7 9 10 11 11 11 12 12 13 15 11 10 10 11 12 13 12 12 13 12 11 11 11 11 11 11 12 13 11 7 8 9 5 6 5 5 6 6 5 6 5 5 5 5 5 5 5 5 4 5 5 5
4 3 4 4 4 4 3 3 3 2 2 2 2 1 1 0 1 1 3 2 1 4 7 10 10 10 11 12 12 11 10 9 6 7 9 11 12 13 13 10 15 19 18 12 11 13 12 12 14 13 12 10 9 8 8 9 9 10 9 10 6 2 5 7 6 7 4 7 6 5 7 6 7 5 6 6 5 5 5 5 5 5 5 6 5
4 6 8 5 3 3 3 3 3 2 2 2 2 2 1 1 1 0 1 1 3 4 3 1 7 12 8 7 9 11 12 11 10 9 10 11 13 13 13 9 10 11 13 12 10 9 11 12 11 10 8 9 9 7 9 8 8 9 9 2 2 4 4 5 4 4 5 4 5 4 6 7 8 7 6 6 7 7 6 6 6 6 5 5 4
3 3 2 3 3 3 3 3 3 2 2 2 2 1 1 1 0 0 0 1 2 2 2 2 2 2 9 10 10 10 10 11 12 12 12 13 13 13 8 9 8 10 10 11 10 11 10 10 10 10 9 9 8 8 8 7 7 7 8 7 9 8 7 5 5 5 5 5 6 8 7 4 8 7 6 4 7 6 6 6 6 5 6 5 4
2 3 3 2 2 3 3 3 3 3 4 3 2 1 1 0 0 0 1 1 1 1 2 2 2 2 3 3 6 7 10 11 11 12 13 12 15 11 8 8 9 8 9 10 9 9 10 10 9 9 9 9 9 8 7 8 9 9 8 10 10 11 10 6 6 5 6 6 4 6 6 5 6 7 8 6 6 5 5 6 5 6 6 7 6
4 4 3 2 2 3 2 3 4 5 3 2 2 2 1 1 1 1 1 1 1 2 2 2 2 2 3 2 2 3 3 5 7 8 9 11 9 8 8 9 9 10 10 9 9 9 11 9 8 11 11 10 10 8 8 7 8 9 9 9 9 11 9 7 11 6 6 3 6 8 4 5 7 7 8 6 8 8 8 8 7 6 6 8 6
4 6 6 5 4 2 2 2 2 2 2 2 2 2 1 1 0 0 1 1 1 2 2 2 2 2 2 2 2 1 1 2 2 4 4 5 6 7 8 8 9 9 10 10 9 10 10 10 9 8 9 10 10 8 7 8 8 8 8 9 10 9 8 6 7 6 7 6 9 6 5 5 5 5 8 5 6 7 7 8 8 7 7 7 7
4 3 3 3 3 2 2 2 2 1 1 2 2 2 2 1 1 0 0 1 1 2 2 2 2 2 2 1 2 2 2 3 3 4 4 5 6 7 7 8 9 10 10 10 9 9 9 9 8 8 9 9 9 8 7 7 8 8 8 9 12 12 12 13 14 9 9 10 9 9 6 7 8 7 5 6 5 7 7 8 7 6 6 6 5
3 4 4 4 3 2 2 2 1 1 1 1 2 2 2 1 0 0 0 1 2 2 2 2 2 2 2 3 6 5 4 4 5 4 5 5 5 6 7 8 8 9 9 9 8 8 9 9 8 7 7 8 8 8 7 7 8 8 8 9 10 11 11 11 13 12 10 8 10 10 9 9 8 9 6 7 7 7 5 5 5 5 6 5 5
3 3 3 3 2 2 2 1 1 1 1 1 1 1 1 1 0 0 0 1 2 2 2 3 3 2 3 6 6 8 5 4 4 5 5 6 6 6 6 7 7 8 8 8 8 8 8 8 8 6 7 7 7 7 7 8 8 8 9 9 10 11 10 11 12 12 12 12 13 11 9 8 8 9 7 7 6 7 7 6 6 6 6 6 5
3 3 3 2 2 2 2 2 1 1 1 1 1 2 1 0 0 0 0 1 1 2 2 2 2 2 2 4 5 7 4 4 5 5 5 6 6 6 7 7 7 7 8 8 8 7 8 8 8 7 7 7 7 7 8 8 8 8 8 9 10 11 11 11 10 11 13 13 13 12 10 10 9 7 7 7 6 7 6 7 6 7 6 6 5
3 3 3 3 2 2 1 1 1 1 1 2 1 0 0 0 0 0 0 1 1 2 2 2 2 2 3 3 4 3 3 3 4 4 5 5 5 6 6 6 6 7 7 7 7 7 7 8 9 8 8 7 6 6 6 6 7 8 9 9 10 11 11 11 12 12 13 13 14 12 12 9 6 6 6 7 7 6 7 7 7 7 6 6 6
3 3 2 2 2 2 1 1 1 1 0 0 0 0 0 0 0 0 1 1 2 2 2 2 2 3 2 2 2 3 3 3 4 4 5 5 6 6 6 6 6 7 8 8 7 7 7 8 8 9 9 8 7 7 7 6 6 7 8 10 10 11 12 12 12 13 14 15 14 13 12 9 7 7 6 7 8 6 6 8 8 6 7 6 7
3 3 2 2 2 1 1 1 1 0 0 0 0 0 0 0 0 0 1 1 2 2 2 2 2 3 3 3 3 3 3 3 4 4 5 5 5 6 6 6 7 7 7 7 7 7 7 7 7 8 9 9 9 8 7 5 6 8 8 9 11 11 10 9 9 10 12 14 14 13 13 9 7 8 9 9 7 8 7 7 7 7 7 7 6
3 3 2 2 2 1 1 0 1 0 0 0 0 0 0 0 0 1 1 2 2 2 2 3 3 3 3 3 3 3 4 4 4 5 5 5 6 6 7 7 7 8 8 8 8 8 8 9 9 10 10 9 9 9 8 7 6 6 6 7 9 10 9 8 8 11 13 14 14 12 12 6 9 10 10 10 8 8 8 8 8 8 7 6 6
3 2 2 2 1 1 1 1 1 0 0 0 0 0 1 1 1 2 2 2 2 2 3 3 3 3 3 3 3 3 3 4 4 5 5 6 6 6 6 7 7 7 7 7 7 7 8 8 8 8 9 9 9 9 8 8 8 7 6 7 8 9 10 10 9 10 12 12 12 14 14 13 12 11 11 11 10 9 9 8 7 6 7 6 6
2 2 1 1 1 0 0 0 0 0 0 0 0 1 1 1 1 1 2 2 2 2 3 3 3 3 3 3 4 4 4 5 5 5 5 6 6 6 6 6 6 6 7 7 7 7 8 8 9 8 8 8 8 8 8 8 8 7 7 7 8 13 13 13 10 10 14 13 12 12 12 12 12 12 11 11 10 8 8 8 7 7 6 6 5
2 1 1 0 1 0 1 0 0 0 0 0 0 1 2 2 2 2 2 3 3 3 3 3 3 3 4 4 5 5 4 5 6 6 6 6 6 6 6 7 7 7 7 7 8 7 7 7 8 8 8 9 9 10 9 9 8 7 6 7 11 14 15 16 17 15 14 10 12 11 12 11 11 11 10 10 10 10 9 9 8 7 7 7 7
1 1 1 1 1 0 0 0 0 0 0 1 1 1 2 2 2 2 2 2 3 3 3 3 3 4 4 4 5 5 6 5 6 7 7 7 7 7 7 7 7 7 8 8 8 8 8 8 8 8 8 8 9 9 10 10 9 8 9 12 12 13 15 15 13 15 18 12 10 10 11 12 11 11 10 9 9 10 10 9 9 8 7 7 6
Wind_Direction
211 215 213 215 220 226 230 230 231 231 232 230 231 231 224 216 212 209 194 194 185 199 199 202 199 195 191 191 190 191 189 179 176 177 185 175 160 148 153 160 156 145 148 145 143 149 141 143 143 142 146 161 164 160 150 144 156 153 166 156 148 129 261 252 204 182 122 77 95 129 118 137 245 212 241 251 275 269 263 277 278 276 276 275 284
199 204 207 210 211 216 221 227 232 229 222 223 224 223 222 216 205 201 206 196 186 200 201 197 192 190 191 190 191 188 188 182 172 167 172 161 148 149 157 154 140 141 150 155 156 155 150 147 152 148 160 164 149 147 148 153 167 153 154 156 142 141 317 245 223 175 185 139 162 140 156 153 256 199 211 269 276 279 275 275 274 268 273 277 280
196 203 208 212 216 215 214 221 227 231 230 223 220 215 214 211 202 207 207 194 193 196 196 193 190 189 191 189 189 190 187 177 176 171 161 154 154 158 162 159 154 156 163 162 159 148 145 153 159 157 156 146 146 141 147 156 155 151 148 151 140 143 172 279 231 193 195 205 99 108 164 168 219 255 272 265 269 267 273 271 274 279 271 273 277
223 217 218 222 223 222 222 228 235 242 241 236 228 217 212 209 200 211 202 190 193 198 194 191 190 191 191 190 185 185 186 175 171 171 159 158 161 163 163 161 159 163 168 162 161 161 161 159 165 162 159 150 149 146 152 153 152 137 143 144 133 142 171 193 283 312 67 146 157 141 101 195 251 247 249 252 260 276 268 272 273 282 286 281 288
231 235 238 236 235 235 235 233 234 234 243 248 244 230 222 210 201 204 193 194 194 190 195 187 187 188 192 188 182 180 173 172 171 155 148 154 159 160 161 160 163 169 167 159 160 166 169 171 165 163 161 151 152 156 158 156 147 145 154 154 149 147 149 188 197 181 161 210 267 231 184 228 228 239 223 277 301 284 269 265 293 287 285 285 290
220 226 228 230 232 231 233 232 230 232 233 235 234 233 224 212 206 208 192 195 192 192 188 188 186 189 189 189 185 179 169 175 180 167 161 157 154 156 158 162 159 157 155 159 161 165 171 167 166 165 163 161 161 155 152 156 151 157 158 156 148 147 163 170 178 179 200 223 223 265 230 217 268 250 139 22 295 297 292 315 298 284 296 301 294
212 215 219 222 228 229 230 230 222 221 221 226 226 220 216 216 205 208 203 200 189 189 192 187 194 189 188 181 181 174 171 168 165 154 150 146 146 148 153 158 152 153 152 156 161 166 167 165 166 165 164 161 158 158 154 155 157 161 161 153 147 162 168 179 181 188 200 205 224 222 235 239 202 255 69 347 260 268 332 321 304 302 301 317 314
209 215 217 220 226 232 233 230 226 225 243 234 219 216 207 201 216 209 172 196 193 194 187 190 188 180 170 166 162 155 155 153 153 152 150 149 147 152 155 158 158 154 149 157 159 161 157 159 165 161 156 153 151 153 156 155 156 159 157 154 156 167 180 173 183 194 198 200 212 225 249 250 264 202 181 259 307 301 31 334 315 321 321 318 305
210 213 214 217 215 212 210 185 162 108 105 120 154 165 171 180 162 157 175 194 195 197 181 165 150 154 153 161 156 159 163 170 165 158 152 151 152 155 161 164 163 158 158 156 152 149 149 147 154 150 118 115 128 138 148 154 162 160 161 163 159 170 180 182 188 194 195 192 215 211 214 247 241 24 313 312 322 321 329 331 302 306 311 309 302
208 211 216 218 209 203 191 164 163 161 164 172 165 148 149 142 140 141 155 139 120 127 135 149 164 162 157 153 157 164 173 174 177 172 158 153 153 152 154 158 160 160 161 158 152 149 144 133 104 106 109 111 113 120 121 113 88 148 161 163 166 172 177 180 185 188 176 189 211 188 238 247 266 343 287 294 343 346 336 328 318 321 319 304 272
211 213 216 209 204 193 186 178 166 184 178 160 148 156 150 144 144 142 141 150 156 157 154 157 167 166 166 166 166 173 175 171 164 160 151 149 152 157 160 161 160 160 164 165 160 154 142 122 117 117 116 120 124 127 122 123 112 106 119 136 156 165 163 172 191 173 179 194 174 180 227 254 263 51 269 318 353 10 330 322 320 329 342 346 333
213 216 212 196 202 197 191 173 181 187 170 176 169 160 147 146 152 151 146 155 163 158 172 178 174 170 165 169 173 175 177 168 171 168 164 162 163 160 161 162 164 165 166 164 160 155 145 137 135 143 154 152 147 143 144 141 135 129 122 110 96 106 181 182 181 178 180 177 191 194 195 236 255 282 292 4 353 335 322 328 323 332 328 321 300
216 218 201 189 198 197 185 187 195 190 192 172 154 143 148 149 152 159 174 165 146 167 186 169 176 174 172 174 180 180 180 169 174 171 168 166 165 161 167 166 164 168 167 167 163 157 150 145 145 156 155 149 147 156 152 151 150 147 141 136 138 153 187 208 233 199 171 168 169 203 215 240 260 254 54 26 343 306 318 317 321 318 312 297 290
216 211 192 203 200 199 193 197 199 195 168 144 145 157 163 174 167 156 136 137 160 163 158 172 170 178 180 180 179 179 175 174 175 175 171 169 168 166 170 168 171 168 169 167 164 162 159 156 154 156 154 158 167 163 162 158 161 161 162 164 169 180 204 211 214 202 240 189 183 197 234 186 242 316 22 31 314 301 310 299 311 305 295 283 293
216 205 197 199 193 192 197 203 201 176 161 154 150 163 172 155 152 160 163 171 175 178 177 178 181 180 175 171 172 182 185 174 179 179 177 172 170 168 171 172 171 168 165 162 163 162 162 160 159 155 158 169 178 171 165 167 165 166 166 176 180 181 191 201 200 194 194 208 212 222 226 245 254 350 6 318 290 285 288 288 293 289 281 280 273
216 200 201 196 190 185 186 195 199 177 163 161 163 169 169 176 172 160 156 168 169 155 162 175 176 184 183 177 176 190 177 178 186 185 181 176 171 170 172 175 173 167 160 159 160 163 161 161 158 158 162 175 175 173 170 161 161 164 171 178 172 179 196 192 166 165 161 198 216 207 305 350 295 271 266 268 283 288 299 297 285 254 266 286 286
225 216 212 191 188 181 182 187 192 180 166 166 182 181 177 174 163 152 155 172 176 184 186 188 183 181 183 187 184 190 175 186 188 189 184 178 171 177 173 179 175 166 164 157 159 160 163 165 165 161 166 178 172 174 170 159 159 169 168 172 174 189 197 179 163 188 115 73 58 238 239 248 254 257 255 254 247 247 279 272 244 239 297 286 292
225 221 216 198 186 176 181 184 184 177 168 185 189 197 189 170 169 172 182 178 188 195 184 176 177 185 186 196 194 191 188 183 188 191 186 181 180 177 179 179 173 167 156 158 151 157 161 167 166 168 173 174 168 174 170 163 163 169 166 172 188 196 208 189 167 191 180 181 208 234 245 241 242 245 248 243 235 228 196 225 274 29 261 268 276
206 203 197 184 180 179 182 185 185 177 183 190 183 182 183 183 167 160 181 176 192 155 164 177 179 190 197 204 207 208 194 183 188 190 189 185 183 181 179 176 172 175 164 159 154 152 157 175 181 179 176 163 169 175 174 171 165 171 172 173 189 206 207 182 174 173 175 171 207 190 214 210 212 217 226 215 227 234 239 227 226 237 255 262 276
179 187 191 189 184 186 179 178 180 176 187 186 180 183 169 151 151 170 171 169 172 149 184 198 198 211 197 206 212 211 191 178 189 191 192 190 188 180 180 176 185 180 172 169 164 171 172 184 193 188 172 168 174 176 178 178 168 170 168 185 193 211 184 184 174 173 181 173 182 164 182 201 191 218 221 209 226 215 226 247 233 238 249 252 254
157 167 186 191 192 187 173 178 184 184 179 181 174 162 165 165 158 169 170 176 165 156 197 204 206 221 176 203 213 220 201 181 188 190 192 192 192 188 191 195 190 180 176 175 181 179 181 187 185 190 181 175 177 179 181 184 175 172 182 195 202 179 170 164 180 180 155 155 162 189 194 199 199 202 200 200 204 209 217 231 227 234 233 237 251
148 157 164 178 182 179 166 130 143 161 146 140 144 154 133 123 150 172 179 167 171 187 182 208 216 224 222 211 224 224 202 189 185 195 194 194 196 198 197 202 192 178 178 185 186 194 189 181 175 187 184 179 179 180 185 191 188 173 192 188 184 188 169 151 153 160 157 170 183 191 189 193 188 193 198 195 203 210 204 217 231 239 256 245 238
143 148 148 148 143 140 130 121 131 128 141 148 151 157 140 141 150 161 157 151 172 185 197 202 209 220 226 212 224 223 216 195 190 197 202 200 202 207 210 207 194 193 189 191 197 191 167 174 155 173 182 177 179 182 188 192 190 185 194 200 197 187 166 157 168 169 167 175 183 196 199 192 189 193 186 194 203 182 191 223 236 256 274 275 277
124 118 114 113 117 123 122 126 132 142 151 151 152 146 146 151 159 179 171 184 188 200 202 205 210 222 225 217 209 197 199 193 196 199 204 207 209 217 220 216 187 203 207 209 186 174 174 172 161 173 179 179 181 185 190 188 192 196 197 197 199 182 160 171 179 179 172 177 188 203 205 198 186 188 193 182 176 172 246 313 314 296 279 274 269
116 115 115 118 118 119 134 154 157 153 148 156 161 158 156 159 181 183 179 188 193 200 195 199 211 216 218 219 207 190 187 189 196 201 204 207 210 212 216 215 202 177 202 202 153 156 116 138 157 174 180 179 183 189 194 196 194 191 195 198 186 159 172 176 183 176 186 188 192 197 203 199 185 170 138 102 70 350 237 250 237 236 242 253 255
122 119 118 117 116 123 128 126 139 144 149 172 180 174 171 181 186 179 181 193 195 200 209 198 210 219 223 216 210 190 182 182 198 197 201 207 210 214 213 213 210 206 210 219 192 166 162 158 167 177 183 183 185 192 187 187 191 190 198 195 161 170 170 180 188 189 197 190 188 191 188 163 155 144 125 130 167 219 212 225 232 249 238 241 260
124 122 121 120 115 129 140 146 141 138 163 174 188 171 172 181 193 186 184 198 201 210 209 204 209 217 219 211 206 197 189 196 200 193 187 188 201 209 211 215 209 201 202 167 144 157 154 156 175 181 188 192 188 182 175 177 184 191 197 171 177 175 185 188 190 192 202 196 181 163 150 137 127 129 183 185 204 217 207 202 227 252 248 258 269
140 137 137 135 139 144 150 119 129 148 162 180 184 186 183 193 211 211 198 202 209 218 219 219 221 211 216 214 211 205 208 207 207 197 184 192 200 202 205 205 202 188 173 152 132 139 146 151 167 177 185 190 180 168 173 174 181 173 166 176 185 177 187 196 198 210 222 188 145 135 130 148 175 186 191 196 204 199 205 198 213 247 261 252 263
130 131 137 134 132 145 144 145 162 147 150 171 200 200 196 196 212 239 218 229 239 240 242 258 252 242 226 226 218 224 221 222 220 205 203 196 198 195 198 199 172 163 177 150 119 132 141 163 178 184 190 190 180 185 184 181 180 182 180 184 184 181 185 179 182 189 186 170 172 167 165 168 180 184 180 197 206 193 202 188 231 221 259 252 240
125 125 132 131 120 136 131 133 139 133 140 162 180 231 48 47 358 335 306 351 291 302 324 304 334 298 260 257 242 242 242 268 249 199 201 188 200 196 140 157 143 126 150 159 150 148 181 186 197 189 189 188 192 193 191 188 186 187 192 187 187 193 196 191 187 185 177 189 173 169 172 173 175 179 185 191 200 189 191 198 209 238 229 239 243
119 120 130 131 131 131 126 126 132 133 121 121 118 358 308 173 198 249 267 306 339 334 311 314 323 320 322 304 304 293 289 24 119 158 168 183 192 193 196 196 168 164 161 150 177 195 197 205 206 203 205 202 203 201 193 192 195 191 196 193 196 198 195 187 187 164 172 182 184 175 167 178 171 179 177 188 178 188 172 205 196 221 227 234 245
134 140 139 126 122 126 124 123 121 131 118 118 99 59 354 317 285 183 211 233 239 276 297 298 302 300 294 287 289 300 295 255 152 169 189 190 198 199 201 195 181 169 181 174 200 220 218 219 219 216 209 209 211 203 200 199 198 198 197 192 206 201 193 193 183 162 173 181 178 171 170 176 170 176 175 171 170 175 181 196 207 210 228 233 237
123 123 125 128 128 125 124 123 126 127 124 121 113 118 318 327 313 325 156 196 243 259 265 275 278 281 275 273 270 267 276 286 176 190 192 204 206 208 208 206 199 186 185 202 216 222 222 225 227 224 216 220 213 207 211 205 206 206 201 202 206 200 190 183 170 161 185 184 165 170 162 162 168 167 174 169 170 172 190 192 204 207 214 227 238
116 129 133 127 124 130 125 124 122 118 117 116 130 134 147 181 309 340 324 319 186 215 235 250 260 269 272 271 271 270 268 258 223 206 202 206 210 213 216 218 216 215 205 211 214 225 223 227 230 229 226 229 228 221 221 220 215 217 213 215 220 102 91 147 158 184 167 185 183 170 168 166 167 158 173 176 181 174 187 192 190 197 212 217 220
87 73 87 108 116 115 117 116 114 117 117 126 133 137 154 153 159 267 288 306 312 319 333 256 218 226 242 260 264 263 264 263 248 229 219 217 216 217 220 225 226 230 226 229 227 234 235 236 241 239 238 234 233 227 231 229 221 221 221 187 112 128 145 176 189 176 173 182 175 174 177 170 179 174 171 170 178 187 187 189 196 198 199 215 219
75 95 92 69 86 97 109 107 108 107 105 103 99 101 97 111 145 197 218 243 275 294 297 292 330 210 223 239 248 260 263 260 255 243 231 224 223 215 223 229 233 233 231 234 233 234 237 241 240 241 237 239 234 229 230 232 229 226 216 184 194 185 175 173 180 183 188 192 196 183 175 163 179 171 170 171 189 187 188 186 189 198 200 198 215
94 99 103 99 97 100 92 95 89 86 86 92 92 95 100 94 133 229 264 281 289 288 287 305 311 286 208 215 233 251 256 261 263 260 250 239 225 217 227 232 237 239 237 238 240 244 241 241 236 239 236 236 235 229 216 219 219 217 213 208 204 178 191 176 169 164 183 197 186 175 176 169 166 173 172 163 180 178 190 189 184 192 196 201 201
53 58 68 75 91 92 99 100 104 112 123 124 128 133 147 164 172 198 239 251 259 263 274 287 288 286 293 308 164 184 256 255 257 260 257 256 247 232 232 237 239 241 243 240 236 240 244 241 230 236 237 235 233 225 217 218 213 215 215 210 200 203 195 183 194 178 190 179 178 173 171 175 182 172 183 169 181 183 190 189 182 187 198 200 198
97 86 84 74 71 82 97 111 124 132 133 141 138 138 148 160 192 223 254 247 252 257 272 274 275 279 290 306 321 233 207 248 230 233 228 230 231 233 236 239 242 244 247 247 245 244 248 249 242 237 237 234 234 222 215 219 215 214 209 201 191 162 186 177 186 180 168 182 174 175 173 181 178 172 182 159 178 190 185 185 186 184 188 193 197
107 111 94 113 113 102 97 104 112 124 137 132 141 137 145 161 180 230 250 256 263 272 276 277 281 284 288 304 282 293 282 272 262 257 251 239 232 232 232 236 241 244 247 248 247 246 249 253 249 240 238 237 228 224 217 216 215 214 205 206 199 207 209 208 203 176 184 190 161 186 165 182 181 174 167 188 174 186 183 186 187 186 188 191 196
95 97 104 88 74 106 109 126 127 133 129 136 129 132 138 142 163 233 253 266 276 279 272 271 276 281 291 284 278 277 276 277 275 275 264 259 255 248 244 244 245 248 250 251 249 247 249 254 252 244 236 234 230 225 220 216 218 216 213 212 211 216 216 212 207 209 201 189 183 187 185 181 177 177 177 186 180 186 188 181 180 185 188 188 187
104 108 105 108 109 95 104 96 102 102 132 126 131 133 129 133 138 168 247 269 275 276 276 278 274 276 285 289 281 272 270 269 272 270 271 271 271 268 265 262 259 259 261 258 254 254 254 254 253 244 238 236 230 227 222 222 218 216 217 215 214 217 218 217 213 207 200 198 196 189 180 178 179 187 175 171 170 177 180 188 183 185 183 185 183
85 93 93 97 98 101 106 112 119 140 137 123 112 98 113 124 161 231 245 261 263 267 275 278 278 281 277 286 287 280 265 262 260 262 266 269 269 272 273 273 271 269 267 267 263 258 257 257 255 248 241 238 234 227 223 225 217 216 218 216 216 217 220 219 214 210 208 201 194 195 187 183 182 174 166 173 167 178 179 183 181 187 186 182 180
99 96 95 96 99 102 103 107 102 93 94 79 106 173 129 128 209 214 231 251 256 269 264 276 281 293 292 299 294 281 264 263 266 268 270 271 270 269 270 274 277 280 279 277 274 270 264 261 261 260 256 246 237 232 228 224 213 218 216 218 219 222 222 221 215 210 203 201 196 188 177 176 157 158 157 172 170 169 177 180 184 184 182 179 184
81 86 95 99 93 102 93 95 96 96 89 160 144 111 134 171 205 258 268 255 265 263 269 270 284 281 284 284 279 276 277 275 275 277 276 277 276 279 281 285 285 285 286 283 284 276 270 267 269 266 263 256 245 234 230 221 210 216 219 217 223 225 227 222 218 211 203 201 196 186 175 172 162 167 161 171 174 165 176 179 178 177 180 182 185
72 80 83 94 97 92 90 85 75 99 87 58 54 56 20 84 265 227 252 263 268 271 271 278 277 283 278 275 273 274 276 280 279 279 280 281 282 283 286 286 288 288 289 290 289 286 279 278 274 271 267 267 262 256 243 226 213 219 221 226 231 236 234 226 221 210 204 200 192 184 181 170 163 176 171 168 167 177 176 178 176 185 183 182 184
72 83 80 80 74 79 76 88 78 44 38 22 21 20 301 326 302 295 270 262 267 272 268 268 270 269 273 275 281 280 284 283 281 280 279 280 281 281 280 280 281 281 283 282 284 284 285 281 276 273 269 266 263 258 256 252 240 221 216 225 240 240 244 232 216 206 202 197 194 181 173 154 169 175 170 168 166 169 174 180 178 177 178 177 180
62 68 69 72 72 74 67 59 56 20 335 275 318 311 304 294 289 277 281 280 271 267 267 269 267 270 271 272 268 271 272 272 274 275 276 276 275 277 277 278 276 277 276 276 275 277 276 275 275 275 275 270 263 260 259 254 251 242 228 222 230 238 234 225 215 204 196 193 192 191 187 183 182 172 170 170 171 173 172 178 170 169 172 174 178
59 64 75 74 72 64 71 61 43 347 359 334 308 285 276 282 290 293 286 274 275 284 284 279 278 277 277 281 288 285 281 280 277 278 276 279 279 280 278 278 279 281 282 281 282 280 279 277 278 277 276 271 265 261 258 255 252 246 235 230 227 231 231 217 207 204 190 190 193 191 189 187 180 176 172 173 174 171 171 170 168 168 167 171 174
77 73 91 88 116 111 95 82 131 343 346 301 299 287 294 279 269 273 271 275 277 271 270 271 274 280 286 290 290 287 287 285 287 285 289 289 292 293 295 294 294 290 289 289 290 290 289 286 284 282 279 277 278 276 271 267 258 246 235 230 226 224 223 216 212 198 190 194 191 188 187 186 182 176 171 168 169 168 167 171 167 166 168 170 178
86 96 102 102 96 96 98 193 166 246 234 265 267 272 271 274 272 271 276 273 270 277 281 282 287 291 292 291 294 291 291 291 295 294 293 292 293 292 293 293 293 293 291 292 292 292 289 289 283 282 279 277 271 272 271 272 269 262 252 244 233 222 216 212 210 200 196 191 186 185 184 184 177 175 172 171 168 171 172 168 167 166 168 172 170